Location: Moscow
(55.7500°N, 37.5830°E)
Time: 07:33:59
(UTC+03:00)

Transit 2A - Pass Details

Date: 07 December 2021
Orbit: 591 x 967 km, 66.7° (Epoch: 17 January)

Event Time Altitude Azimuth Distance (km) Brightness Sun altitude
Exits shadow 03:37:34 23° 31° (NNE) 1,925 8.4 -41.1°
Drops below altitude 10° 03:40:27 10° 52° (NE) 2,716 9.4 -40.7°
Sets 03:43:21 0° 62° (ENE) 3,661 10.4 -40.4°
